Weather History for Glasgow, United Kingdom

Change the Weather History Date:

Thursday, January 24, 2013

  Actual Average Record
Temperature  
Mean Temperature 36 °F -  
Max Temperature 39 °F 44 °F 51 °F (2003)
Min Temperature 33 °F 32 °F 24 °F (2000)
Degree Days  
Heating Degree Days 29    
Moisture  
Dew Point 31 °F    
Average Humidity 83    
Maximum Humidity 93    
Minimum Humidity 65    
Precipitation  
Precipitation 0.00 in - - ()
Sea Level Pressure  
Sea Level Pressure 30.01 in    
Wind  
Wind Speed 5 mph ()    
Max Wind Speed 10 mph    
Max Gust Speed -    
Visibility 5.9 miles    
Events Rain    
Averages and records for this station are not official NWS values.
T = Trace of Precipitation, MM = Missing Value Source: Averaged Metar Reports

Daily Weather History Graph

Daily Weather History Graph

Search for Another Location

Airport:

Trip Planner

Search our weather history database for the weather conditions in past years. The results will help you decide how hot, cold, wet, or windy it might be!

Date:

Astronomy

Jan. 24, 2013 Rise Set
Actual Time 8:25 AM GMT 4:34 PM GMT
Civil Twilight 7:43 AM GMT 5:17 PM GMT
Nautical Twilight 6:57 AM GMT 6:03 PM GMT
Astronomical Twilight 6:13 AM GMT 6:46 PM GMT
Moon 2:16 PM GMT (1/24) 6:21 AM GMT (1/24)
Length of Visible Light 9h 33m
Length of Day
8h 08m
Waxing Gibbous, 93% of the Moon is Illuminated
Jan 24
Waxing Gibbous
Jan 27
Full
Feb 3
Last Quarter
Feb 10
New
Feb 17
First Quarter

Hourly Weather History & Observations

Time (GMT) Temp. Windchill Dew Point Humidity Pressure Visibility Wind Dir Wind Speed Gust Speed Precip Events Conditions
12:20 AM 33.8 °F 30.8 °F 32.0 °F 93% 29.95 in 6.2 mi East 3.5 mph - N/A   Scattered Clouds
12:50 AM 33.8 °F 27.7 °F 32.0 °F 93% 29.95 in 6.2 mi East 6.9 mph - N/A   Partly Cloudy
1:20 AM 33.8 °F 29.6 °F 32.0 °F 93% 29.98 in 6.2 mi East 4.6 mph - N/A   Partly Cloudy
1:50 AM 33.8 °F 29.6 °F 32.0 °F 93% 29.98 in 6.2 mi East 4.6 mph - N/A   Unknown
2:20 AM 33.8 °F 27.7 °F 32.0 °F 93% 29.98 in 6.2 mi East 6.9 mph - N/A   Unknown
2:50 AM 33.8 °F 27.7 °F 32.0 °F 93% 29.98 in 6.2 mi ENE 6.9 mph - N/A   Unknown
3:20 AM 33.8 °F - 32.0 °F 93% 29.98 in 6.2 mi ESE 2.3 mph - N/A   Unknown
3:50 AM 33.8 °F - 32.0 °F 93% 29.98 in - Calm Calm - N/A   Clear
4:20 AM 33.8 °F 30.8 °F 32.0 °F 93% 29.98 in 6.2 mi East 3.5 mph - N/A   Unknown
4:50 AM 33.8 °F 30.8 °F 32.0 °F 93% 30.01 in 6.2 mi East 3.5 mph - N/A   Unknown
5:20 AM 33.8 °F 27.7 °F 32.0 °F 93% 30.01 in 6.2 mi East 6.9 mph - N/A   Partly Cloudy
5:50 AM 33.8 °F 29.6 °F 32.0 °F 93% 30.01 in 6.2 mi ENE 4.6 mph - N/A   Partly Cloudy
6:20 AM 33.8 °F 29.6 °F 32.0 °F 93% 30.01 in 6.2 mi ENE 4.6 mph - N/A   Partly Cloudy
6:50 AM 33.8 °F 29.6 °F 32.0 °F 93% 30.01 in 6.2 mi ENE 4.6 mph - N/A   Partly Cloudy
7:20 AM 33.8 °F 28.6 °F 32.0 °F 93% 30.04 in 5.6 mi ENE 5.8 mph - N/A   Partly Cloudy
7:50 AM 33.8 °F - 32.0 °F 93% 30.04 in 5.0 mi ENE 2.3 mph - N/A   Partly Cloudy
8:20 AM 33.8 °F 29.6 °F 32.0 °F 93% 30.04 in 4.3 mi East 4.6 mph - N/A   Partly Cloudy
8:50 AM 33.8 °F 30.8 °F 32.0 °F 93% 30.04 in 5.0 mi NNE 3.5 mph - N/A   Partly Cloudy
9:20 AM 33.8 °F 28.6 °F 32.0 °F 93% 30.04 in 5.6 mi East 5.8 mph - N/A   Scattered Clouds
9:50 AM 33.8 °F 28.6 °F 32.0 °F 93% 30.04 in 5.6 mi ENE 5.8 mph - N/A   Mostly Cloudy
10:20 AM 35.6 °F 29.9 °F 32.0 °F 87% 30.04 in 6.2 mi ENE 6.9 mph - N/A   Mostly Cloudy
10:50 AM 35.6 °F 30.7 °F 32.0 °F 87% 30.04 in 6.2 mi ENE 5.8 mph - N/A   Mostly Cloudy
11:20 AM 35.6 °F 31.7 °F 32.0 °F 87% 30.04 in - East 4.6 mph - N/A   Clear
11:50 AM 37.4 °F 33.8 °F 32.0 °F 81% 30.04 in - East 4.6 mph - N/A   Clear
12:20 PM 37.4 °F 32.8 °F 32.0 °F 81% 30.04 in 6.2 mi ESE 5.8 mph - N/A   Partly Cloudy
12:50 PM 39.2 °F 33.6 °F 30.2 °F 70% 30.04 in - SSE 8.1 mph - N/A   Clear
1:20 PM 39.2 °F 32.5 °F 30.2 °F 70% 30.04 in 6.2 mi South 10.4 mph - N/A   Partly Cloudy
1:50 PM 39.2 °F 33.0 °F 28.4 °F 65% 30.04 in 6.2 mi South 9.2 mph - N/A   Partly Cloudy
2:20 PM 37.4 °F 30.8 °F 26.6 °F 65% 30.04 in 6.2 mi South 9.2 mph - N/A   Partly Cloudy
2:50 PM 37.4 °F 32.1 °F 28.4 °F 70% 30.04 in 6.2 mi SSE 6.9 mph - N/A   Scattered Clouds
3:20 PM 37.4 °F 32.8 °F 28.4 °F 70% 30.04 in 6.2 mi SE 5.8 mph - N/A   Mostly Cloudy
3:50 PM 37.4 °F 33.8 °F 28.4 °F 70% 30.04 in 6.2 mi ESE 4.6 mph - N/A   Mostly Cloudy
4:20 PM 35.6 °F 32.8 °F 28.4 °F 75% 30.04 in 6.2 mi Variable 3.5 mph - N/A   Mostly Cloudy
4:50 PM 37.4 °F 33.8 °F 28.4 °F 70% 30.04 in 6.2 mi ESE 4.6 mph - N/A   Overcast
5:20 PM 35.6 °F 31.7 °F 28.4 °F 75% 30.04 in 6.2 mi SE 4.6 mph - N/A   Overcast
5:50 PM 37.4 °F 32.8 °F 30.2 °F 75% 30.01 in 6.2 mi ESE 5.8 mph - N/A   Overcast
6:20 PM 35.6 °F 30.7 °F 30.2 °F 81% 30.01 in 6.2 mi ESE 5.8 mph - N/A   Overcast
6:50 PM 37.4 °F - 28.4 °F 70% 30.01 in 5.0 mi Calm Calm - N/A   Overcast
7:20 PM 37.4 °F 33.8 °F 28.4 °F 70% 30.01 in 6.2 mi SE 4.6 mph - N/A   Overcast
7:50 PM 37.4 °F 34.9 °F 30.2 °F 75% 30.01 in 6.2 mi Variable 3.5 mph - N/A   Overcast
8:20 PM 37.4 °F - 30.2 °F 75% 30.01 in 6.2 mi Variable 2.3 mph - N/A   Overcast
8:50 PM 37.4 °F 34.9 °F 30.2 °F 75% 30.01 in 6.2 mi Variable 3.5 mph - N/A   Overcast
9:20 PM 37.4 °F 34.9 °F 30.2 °F 75% 29.98 in 6.2 mi Variable 3.5 mph - N/A   Overcast
9:50 PM 37.4 °F 34.9 °F 30.2 °F 75% 29.98 in 5.6 mi Variable 3.5 mph - N/A   Light Drizzle
10:20 PM 35.6 °F 30.7 °F 32.0 °F 87% 29.98 in 4.3 mi SE 5.8 mph - N/A Rain Light Rain
10:50 PM 35.6 °F 31.7 °F 32.0 °F 87% 29.95 in 5.0 mi ENE 4.6 mph - N/A   Overcast
11:20 PM 37.4 °F 32.8 °F 32.0 °F 81% 29.95 in 6.2 mi East 5.8 mph - N/A   Overcast
11:50 PM 37.4 °F 32.8 °F 32.0 °F 81% 29.95 in 5.0 mi South 5.8 mph - N/A Rain Light Rain